START_TIME,STEP,MOV.,AL01,t_acc.,AL02,t_acc.,E37,t_acc.,H21,t_acc.
1979-07-30 18:00:33.320 ,1,1,0.,24.0,0.,24.0,2.,24.0,0.,24.0
1979-07-30 18:00:57.320 ,2,1,0.,24.0,0.,24.0,1.,24.0,0.,24.0
1979-07-30 18:01:21.320 ,6,1,0.,24.0,0.,24.0,3.,24.0,0.,24.0
1979-07-30 18:01:45.320 ,5,1,23.,24.0,0.,24.0,1.,24.0,0.,24.0
1979-07-30 18:02:09.320 ,1,1,0.,24.0,0.,24.0,3.,24.0,0.,24.0
1979-07-30 18:02:33.320 ,2,1,0.,24.0,0.,24.0,0.,24.0,0.,24.0
1979-07-30 18:02:57.320 ,6,1,0.,24.0,0.,24.0,1.,24.0,0.,24.0
1979-07-30 18:03:21.320 ,5,1,,0,,0,,0,,0
1979-07-30 18:03:45.320 ,1,1,0.,24.0,0.,24.0,0.,24.0,0.,24.0
1979-07-30 18:04:09.320 ,2,1,0.,24.0,0.,24.0,1.,24.0,0.,24.0
1979-07-30 18:04:33.320 ,6,1,0.,24.0,0.,24.0,0.,24.0,0.,24.0
1979-07-30 18:04:57.320 ,5,1,17.,24.0,0.,24.0,1.,24.0,0.,24.0
1979-07-30 18:05:21.320 ,1,1,0.,24.0,0.,24.0,1.,24.0,0.,24.0
1979-07-30 18:05:45.320 ,0,0,0.,24.0,0.,24.0,0.,24.0,0.,24.0
1979-07-30 18:06:09.320 ,0,0,0.,24.0,0.,24.0,2.,24.0,0.,24.0
1979-07-30 18:06:33.320 ,5,1,17.,24.0,0.,24.0,2.,24.0,0.,24.0
1979-07-30 18:06:57.320 ,5,0,0.,24.0,0.,24.0,2.,24.0,0.,24.0
1979-07-30 18:07:21.320 ,4,1,0.,24.0,0.,24.0,0.,24.0,0.,24.0
1979-07-30 18:07:45.320 ,4,0,0.,24.0,0.,24.0,2.,24.0,0.,24.0
1979-07-30 18:08:09.320 ,3,1,0.,24.0,0.,24.0,1.,24.0,0.,24.0
1979-07-30 18:08:33.320 ,3,0,1.,24.0,0.,24.0,0.,24.0,0.,24.0
1979-07-30 18:08:57.320 ,2,1,0.,24.0,0.,24.0,1.,24.0,0.,24.0
1979-07-30 18:09:21.320 ,2,0,0.,24.0,0.,24.0,1.,24.0,0.,24.0
1979-07-30 18:09:45.320 ,1,1,0.,24.0,0.,24.0,1.,24.0,0.,24.0
1979-07-30 18:10:09.320 ,1,0,0.,24.0,0.,24.0,1.,24.0,0.,24.0
1979-07-30 18:10:33.320 ,0,1,0.,24.0,0.,24.0,1.,24.0,0.,24.0
1979-07-30 18:10:57.320 ,0,0,1.,24.0,0.,24.0,1.,24.0,0.,24.0
1979-07-30 18:11:21.320 ,0,1,0.,24.0,0.,24.0,0.,24.0,0.,24.0
1979-07-30 18:11:45.320 ,0,0,0.,24.0,1.,24.0,1.,24.0,0.,24.0
1979-07-30 18:12:09.320 ,1,1,0.,24.0,0.,24.0,1.,24.0,0.,24.0
1979-07-30 18:12:33.320 ,1,0,0.,24.0,0.,24.0,1.,24.0,0.,24.0
1979-07-30 18:12:57.320 ,2,1,0.,24.0,0.,24.0,2.,24.0,0.,24.0
1979-07-30 18:13:21.320 ,2,0,0.,24.0,1.,24.0,0.,24.0,0.,24.0
1979-07-30 18:13:45.320 ,3,1,0.,24.0,0.,24.0,0.,24.0,0.,24.0
1979-07-30 18:14:09.320 ,3,0,1.,24.0,0.,24.0,0.,24.0,0.,24.0
1979-07-30 18:14:33.320 ,4,1,0.,24.0,0.,24.0,3.,24.0,0.,24.0
1979-07-30 18:14:57.320 ,4,0,0.,24.0,0.,24.0,1.,24.0,0.,24.0
1979-07-30 18:15:21.320 ,5,1,0.,24.0,0.,24.0,0.,24.0,0.,24.0
1979-07-30 18:15:45.320 ,5,0,0.,24.0,0.,24.0,2.,24.0,0.,24.0
1979-07-30 18:16:09.320 ,6,1,1.,24.0,0.,24.0,1.,24.0,0.,24.0
1979-07-30 18:16:33.320 ,6,0,0.,24.0,0.,24.0,0.,24.0,0.,24.0
1979-07-30 18:16:57.320 ,7,1,9.,24.0,0.,24.0,1.,24.0,0.,24.0
1979-07-30 18:17:21.320 ,7,0,33.,24.0,0.,24.0,0.,24.0,0.,24.0
1979-07-30 18:17:45.320 ,7,1,27.,24.0,0.,24.0,0.,24.0,0.,24.0
1979-07-30 18:18:09.320 ,7,0,30.,24.0,0.,24.0,0.,24.0,0.,24.0
1979-07-30 18:18:33.320 ,6,1,26.,24.0,0.,24.0,0.,24.0,0.,24.0
1979-07-30 18:18:57.320 ,6,0,0.,24.0,0.,24.0,0.,24.0,0.,24.0
1979-07-30 18:19:21.320 ,5,1,0.,24.0,0.,24.0,0.,24.0,0.,24.0
1979-07-30 18:19:45.320 ,5,0,0.,24.0,0.,24.0,0.,24.0,0.,24.0
1979-07-30 18:20:09.320 ,4,1,0.,24.0,0.,24.0,3.,24.0,0.,24.0
1979-07-30 18:20:33.320 ,4,0,0.,24.0,0.,24.0,1.,24.0,0.,24.0
1979-07-30 18:20:57.320 ,3,1,0.,24.0,0.,24.0,1.,24.0,0.,24.0
1979-07-30 18:21:21.320 ,3,0,0.,24.0,0.,24.0,1.,24.0,0.,24.0
1979-07-30 18:21:45.320 ,2,1,0.,24.0,0.,24.0,0.,24.0,0.,24.0
1979-07-30 18:22:09.320 ,2,0,0.,24.0,0.,24.0,2.,24.0,0.,24.0
1979-07-30 18:22:33.320 ,1,1,0.,24.0,0.,24.0,1.,24.0,0.,24.0
1979-07-30 18:22:57.320 ,1,0,0.,24.0,0.,24.0,1.,24.0,0.,24.0
1979-07-30 18:23:21.320 ,0,1,0.,24.0,0.,24.0,2.,24.0,0.,24.0
1979-07-30 18:23:45.320 ,0,0,0.,24.0,0.,24.0,0.,24.0,0.,24.0
1979-07-30 18:24:09.320 ,0,1,0.,24.0,0.,24.0,0.,24.0,0.,24.0
1979-07-30 18:24:33.320 ,0,0,0.,24.0,0.,24.0,2.,24.0,0.,24.0
1979-07-30 18:24:57.320 ,1,1,0.,24.0,0.,24.0,1.,24.0,0.,24.0
1979-07-30 18:25:21.320 ,1,0,0.,24.0,0.,24.0,2.,24.0,0.,24.0
1979-07-30 18:25:45.320 ,2,1,0.,24.0,0.,24.0,2.,24.0,0.,24.0
1979-07-30 18:26:09.320 ,2,0,0.,24.0,0.,24.0,2.,24.0,0.,24.0
1979-07-30 18:26:33.320 ,3,1,0.,24.0,0.,24.0,0.,24.0,0.,24.0
1979-07-30 18:26:57.320 ,3,0,0.,24.0,0.,24.0,0.,24.0,0.,24.0
1979-07-30 18:27:21.320 ,4,1,0.,24.0,0.,24.0,1.,24.0,0.,24.0
1979-07-30 18:27:45.320 ,4,0,0.,24.0,0.,24.0,1.,24.0,0.,24.0
1979-07-30 18:28:09.320 ,5,1,0.,24.0,0.,24.0,2.,24.0,0.,24.0
1979-07-30 18:28:33.320 ,5,0,0.,24.0,0.,24.0,0.,24.0,0.,24.0
1979-07-30 18:28:57.320 ,6,1,0.,24.0,0.,24.0,3.,24.0,0.,24.0
1979-07-30 18:29:21.320 ,6,0,0.,24.0,0.,24.0,2.,24.0,0.,24.0
1979-07-30 18:29:45.320 ,7,1,6.,24.0,0.,24.0,4.,24.0,0.,24.0
1979-07-30 18:30:09.320 ,7,0,16.,24.0,0.,24.0,1.,24.0,0.,24.0
1979-07-30 18:30:33.320 ,7,1,24.,24.0,0.,24.0,2.,24.0,0.,24.0
1979-07-30 18:30:57.320 ,7,0,26.,24.0,0.,24.0,6.,24.0,0.,24.0
1979-07-30 18:31:21.320 ,6,1,20.,24.0,0.,24.0,1.,24.0,0.,24.0
1979-07-30 18:31:45.320 ,6,0,0.,24.0,0.,24.0,2.,24.0,0.,24.0
1979-07-30 18:32:09.320 ,5,1,0.,24.0,0.,24.0,3.,24.0,0.,24.0
1979-07-30 18:32:33.320 ,5,0,0.,24.0,0.,24.0,1.,24.0,0.,24.0
1979-07-30 18:32:57.320 ,4,1,0.,24.0,0.,24.0,1.,24.0,0.,24.0
1979-07-30 18:33:21.320 ,4,0,0.,24.0,0.,24.0,2.,24.0,0.,24.0
1979-07-30 18:33:45.320 ,3,1,0.,24.0,0.,24.0,2.,24.0,0.,24.0
1979-07-30 18:34:09.320 ,3,0,0.,24.0,0.,24.0,1.,24.0,0.,24.0
1979-07-30 18:34:33.320 ,2,1,0.,24.0,0.,24.0,0.,24.0,0.,24.0
1979-07-30 18:34:57.320 ,2,0,0.,24.0,0.,24.0,1.,24.0,0.,24.0
1979-07-30 18:35:21.320 ,1,1,0.,24.0,0.,24.0,0.,24.0,0.,24.0
1979-07-30 18:35:45.320 ,1,0,1.,24.0,0.,24.0,1.,24.0,0.,24.0
1979-07-30 18:36:09.320 ,0,1,0.,24.0,0.,24.0,1.,24.0,0.,24.0
1979-07-30 18:36:33.320 ,0,0,0.,24.0,0.,24.0,3.,24.0,0.,24.0
1979-07-30 18:36:57.320 ,0,1,0.,24.0,0.,24.0,0.,24.0,0.,24.0
1979-07-30 18:37:21.320 ,0,0,0.,24.0,0.,24.0,2.,24.0,0.,24.0
1979-07-30 18:37:45.320 ,1,1,0.,24.0,0.,24.0,1.,24.0,0.,24.0
1979-07-30 18:38:09.320 ,1,0,0.,24.0,0.,24.0,0.,24.0,0.,24.0
1979-07-30 18:38:33.320 ,2,1,0.,24.0,0.,24.0,1.,24.0,0.,24.0
1979-07-30 18:38:57.320 ,2,0,0.,24.0,0.,24.0,3.,24.0,0.,24.0
1979-07-30 18:39:21.320 ,3,1,0.,24.0,0.,24.0,0.,24.0,0.,24.0
1979-07-30 18:39:45.320 ,3,0,0.,24.0,0.,24.0,1.,24.0,0.,24.0
1979-07-30 18:40:09.320 ,4,1,0.,24.0,0.,24.0,0.,24.0,0.,24.0
1979-07-30 18:40:33.320 ,4,0,0.,24.0,0.,24.0,1.,24.0,0.,24.0
1979-07-30 18:40:57.320 ,5,1,0.,24.0,0.,24.0,2.,24.0,0.,24.0
1979-07-30 18:41:21.320 ,5,0,0.,24.0,0.,24.0,0.,24.0,0.,24.0
1979-07-30 18:41:45.320 ,6,1,0.,24.0,0.,24.0,0.,24.0,0.,24.0
1979-07-30 18:42:09.320 ,6,0,0.,24.0,0.,24.0,2.,24.0,0.,24.0
1979-07-30 18:42:33.320 ,7,0,13.,24.0,0.,24.0,2.,24.0,0.,24.0
1979-07-30 18:42:57.320 ,7,0,40.,24.0,1.,24.0,1.,24.0,0.,24.0
1979-07-30 18:43:21.320 ,5,1,19.,24.0,0.,24.0,3.,24.0,0.,24.0
1979-07-30 18:43:45.320 ,1,1,0.,24.0,0.,24.0,0.,24.0,0.,24.0
1979-07-30 18:44:09.320 ,2,1,0.,24.0,0.,24.0,1.,24.0,0.,24.0
1979-07-30 18:44:33.320 ,6,1,0.,24.0,0.,24.0,2.,24.0,0.,24.0
1979-07-30 18:44:57.320 ,5,1,17.,24.0,0.,24.0,3.,24.0,0.,24.0
1979-07-30 18:45:21.320 ,1,1,1.,24.0,0.,24.0,1.,24.0,0.,24.0
1979-07-30 18:45:45.320 ,2,1,0.,24.0,0.,24.0,0.,24.0,0.,24.0
1979-07-30 18:46:09.320 ,6,1,1.,24.0,0.,24.0,0.,24.0,0.,24.0
1979-07-30 18:46:33.320 ,5,1,10.,24.0,0.,24.0,0.,24.0,0.,24.0
1979-07-30 18:46:57.320 ,1,1,0.,24.0,0.,24.0,0.,24.0,0.,24.0
1979-07-30 18:47:21.320 ,2,1,0.,24.0,0.,24.0,1.,24.0,0.,24.0
1979-07-30 18:47:45.320 ,6,1,0.,24.0,0.,24.0,3.,24.0,0.,24.0
1979-07-30 18:48:09.320 ,5,1,9.,24.0,0.,24.0,0.,24.0,0.,24.0
1979-07-30 18:48:33.320 ,1,1,0.,24.0,0.,24.0,1.,24.0,0.,24.0
1979-07-30 18:48:57.320 ,2,1,0.,24.0,0.,24.0,0.,24.0,0.,24.0
1979-07-30 18:49:21.320 ,6,1,0.,24.0,0.,24.0,0.,24.0,0.,24.0
1979-07-30 18:49:45.320 ,5,1,16.,24.0,0.,24.0,1.,24.0,0.,24.0
1979-07-30 18:50:09.320 ,1,1,1.,24.0,1.,24.0,1.,24.0,0.,24.0
1979-07-30 18:50:33.320 ,2,1,0.,24.0,0.,24.0,0.,24.0,0.,24.0
1979-07-30 18:50:57.320 ,6,1,0.,24.0,0.,24.0,1.,24.0,0.,24.0
1979-07-30 18:51:21.320 ,5,1,13.,24.0,0.,24.0,3.,24.0,0.,24.0
1979-07-30 18:51:45.320 ,1,1,0.,24.0,0.,24.0,1.,24.0,0.,24.0
1979-07-30 18:52:09.320 ,2,1,0.,24.0,0.,24.0,0.,24.0,0.,24.0
1979-07-30 18:52:33.320 ,6,1,0.,24.0,0.,24.0,0.,24.0,0.,24.0
1979-07-30 18:52:57.320 ,5,1,13.,24.0,0.,24.0,0.,24.0,0.,24.0
1979-07-30 18:53:21.320 ,1,1,0.,24.0,0.,24.0,1.,24.0,0.,24.0
1979-07-30 18:53:45.320 ,0,0,0.,24.0,0.,24.0,2.,24.0,0.,24.0
1979-07-30 18:54:09.320 ,0,0,0.,24.0,0.,24.0,1.,24.0,0.,24.0
1979-07-30 18:54:33.320 ,5,1,17.,24.0,0.,24.0,2.,24.0,0.,24.0
1979-07-30 18:54:57.320 ,5,0,0.,24.0,0.,24.0,1.,24.0,0.,24.0
1979-07-30 18:55:21.320 ,4,1,0.,24.0,0.,24.0,1.,24.0,0.,24.0
1979-07-30 18:55:45.320 ,4,0,0.,24.0,0.,24.0,1.,24.0,0.,24.0
1979-07-30 18:56:09.320 ,3,1,0.,24.0,0.,24.0,1.,24.0,0.,24.0
1979-07-30 18:56:33.320 ,3,0,0.,24.0,0.,24.0,5.,24.0,0.,24.0
1979-07-30 18:56:57.320 ,2,1,0.,24.0,0.,24.0,0.,24.0,0.,24.0
1979-07-30 18:57:21.320 ,2,0,0.,24.0,0.,24.0,1.,24.0,0.,24.0
1979-07-30 18:57:45.320 ,1,1,0.,24.0,0.,24.0,1.,24.0,0.,24.0
1979-07-30 18:58:09.320 ,1,0,0.,24.0,0.,24.0,0.,24.0,0.,24.0
1979-07-30 18:58:33.320 ,0,1,0.,24.0,0.,24.0,1.,24.0,0.,24.0
1979-07-30 18:58:57.320 ,0,0,0.,24.0,0.,24.0,3.,24.0,0.,24.0
1979-07-30 18:59:21.320 ,0,1,0.,24.0,0.,24.0,2.,24.0,0.,24.0
1979-07-30 18:59:45.320 ,0,0,0.,24.0,0.,24.0,4.,24.0,0.,24.0
1979-07-30 19:00:09.320 ,1,1,0.,24.0,0.,24.0,1.,24.0,0.,24.0
1979-07-30 19:00:33.320 ,1,0,0.,24.0,0.,24.0,0.,24.0,0.,24.0
1979-07-30 19:00:57.320 ,2,1,0.,24.0,0.,24.0,0.,24.0,0.,24.0
1979-07-30 19:01:21.320 ,2,0,0.,24.0,0.,24.0,4.,24.0,0.,24.0
1979-07-30 19:01:45.320 ,3,1,0.,24.0,0.,24.0,0.,24.0,0.,24.0
1979-07-30 19:02:09.320 ,3,0,0.,24.0,0.,24.0,2.,24.0,0.,24.0
1979-07-30 19:02:33.320 ,4,1,0.,24.0,0.,24.0,1.,24.0,0.,24.0
1979-07-30 19:02:57.320 ,4,0,0.,24.0,0.,24.0,1.,24.0,0.,24.0
1979-07-30 19:03:21.320 ,5,1,0.,24.0,0.,24.0,3.,24.0,0.,24.0
1979-07-30 19:03:45.320 ,5,0,0.,24.0,0.,24.0,2.,24.0,0.,24.0
1979-07-30 19:04:09.320 ,6,1,0.,24.0,0.,24.0,1.,24.0,0.,24.0
1979-07-30 19:04:33.320 ,6,0,0.,24.0,0.,24.0,3.,24.0,0.,24.0
1979-07-30 19:04:57.320 ,7,1,8.,24.0,0.,24.0,7.,24.0,0.,24.0
1979-07-30 19:05:21.320 ,7,0,31.,24.0,0.,24.0,1.,24.0,0.,24.0
1979-07-30 19:05:45.320 ,7,1,19.,24.0,0.,24.0,3.,24.0,0.,24.0
1979-07-30 19:06:09.320 ,7,0,30.,24.0,1.,24.0,2.,24.0,0.,24.0
1979-07-30 19:06:33.320 ,6,1,21.,24.0,0.,24.0,2.,24.0,0.,24.0
1979-07-30 19:06:57.320 ,6,0,0.,24.0,0.,24.0,2.,24.0,0.,24.0
1979-07-30 19:07:21.320 ,5,1,0.,24.0,0.,24.0,2.,24.0,0.,24.0
1979-07-30 19:07:45.320 ,5,0,0.,24.0,0.,24.0,4.,24.0,0.,24.0
1979-07-30 19:08:09.320 ,4,1,0.,24.0,0.,24.0,3.,24.0,0.,24.0
1979-07-30 19:08:33.320 ,4,0,1.,24.0,0.,24.0,3.,24.0,0.,24.0
1979-07-30 19:08:57.320 ,3,1,0.,24.0,0.,24.0,5.,24.0,0.,24.0
1979-07-30 19:09:21.320 ,3,0,0.,24.0,0.,24.0,5.,24.0,0.,24.0
1979-07-30 19:09:45.320 ,2,1,0.,24.0,0.,24.0,0.,24.0,0.,24.0
1979-07-30 19:10:09.320 ,2,0,0.,24.0,0.,24.0,3.,24.0,0.,24.0
1979-07-30 19:10:33.320 ,1,1,0.,24.0,0.,24.0,3.,24.0,0.,24.0
1979-07-30 19:10:57.320 ,1,0,0.,24.0,0.,24.0,3.,24.0,0.,24.0
1979-07-30 19:11:21.320 ,0,1,0.,24.0,0.,24.0,4.,24.0,0.,24.0
1979-07-30 19:11:45.320 ,0,0,0.,24.0,0.,24.0,1.,24.0,0.,24.0
1979-07-30 19:12:09.320 ,0,1,0.,24.0,0.,24.0,4.,24.0,0.,24.0
1979-07-30 19:12:33.320 ,0,0,0.,24.0,0.,24.0,2.,24.0,0.,24.0
1979-07-30 19:12:57.320 ,1,1,0.,24.0,0.,24.0,1.,24.0,0.,24.0
1979-07-30 19:13:21.320 ,1,0,0.,24.0,0.,24.0,2.,24.0,0.,24.0
1979-07-30 19:13:45.320 ,2,1,0.,24.0,0.,24.0,3.,24.0,0.,24.0
1979-07-30 19:14:09.320 ,2,0,0.,24.0,0.,24.0,1.,24.0,0.,24.0
1979-07-30 19:14:33.320 ,3,1,0.,24.0,0.,24.0,0.,24.0,0.,24.0
1979-07-30 19:14:57.320 ,3,0,0.,24.0,0.,24.0,0.,24.0,0.,24.0
1979-07-30 19:15:21.320 ,4,1,0.,24.0,0.,24.0,3.,24.0,0.,24.0
1979-07-30 19:15:45.320 ,4,0,0.,24.0,0.,24.0,4.,24.0,0.,24.0
1979-07-30 19:16:09.320 ,5,1,0.,24.0,0.,24.0,2.,24.0,0.,24.0
1979-07-30 19:16:33.320 ,5,0,1.,24.0,0.,24.0,2.,24.0,0.,24.0
1979-07-30 19:16:57.320 ,6,1,0.,24.0,0.,24.0,0.,24.0,0.,24.0
1979-07-30 19:17:21.320 ,6,0,0.,24.0,0.,24.0,2.,24.0,0.,24.0
1979-07-30 19:17:45.320 ,7,1,3.,24.0,0.,24.0,3.,24.0,0.,24.0
1979-07-30 19:18:09.320 ,7,0,17.,24.0,0.,24.0,1.,24.0,0.,24.0
1979-07-30 19:18:33.320 ,7,1,29.,24.0,0.,24.0,4.,24.0,0.,24.0
1979-07-30 19:18:57.320 ,7,0,35.,24.0,0.,24.0,3.,24.0,0.,24.0
1979-07-30 19:19:21.320 ,6,1,35.,24.0,0.,24.0,1.,24.0,0.,24.0
1979-07-30 19:19:45.320 ,6,0,0.,24.0,0.,24.0,1.,24.0,0.,24.0
1979-07-30 19:20:09.320 ,5,1,0.,24.0,0.,24.0,0.,24.0,0.,24.0
1979-07-30 19:20:33.320 ,5,0,0.,24.0,0.,24.0,0.,24.0,0.,24.0
1979-07-30 19:20:57.320 ,4,1,0.,24.0,0.,24.0,3.,24.0,0.,24.0
1979-07-30 19:21:21.320 ,4,0,0.,24.0,1.,24.0,3.,24.0,0.,24.0
1979-07-30 19:21:45.320 ,3,1,0.,24.0,0.,24.0,2.,24.0,0.,24.0
1979-07-30 19:22:09.320 ,3,0,0.,24.0,0.,24.0,0.,24.0,0.,24.0
1979-07-30 19:22:33.320 ,2,1,,0,,0,,0,,0
1979-07-30 19:22:57.320 ,2,0,0.,24.0,0.,24.0,3.,24.0,0.,24.0
1979-07-30 19:23:21.320 ,1,1,0.,24.0,0.,24.0,0.,24.0,0.,24.0
1979-07-30 19:23:45.320 ,1,0,0.,24.0,0.,24.0,1.,24.0,0.,24.0
1979-07-30 19:24:09.320 ,0,1,0.,24.0,0.,24.0,1.,24.0,0.,24.0
1979-07-30 19:24:33.320 ,0,0,0.,24.0,0.,24.0,3.,24.0,0.,24.0
1979-07-30 19:24:57.320 ,0,1,0.,24.0,0.,24.0,7.,24.0,0.,24.0
1979-07-30 19:25:21.320 ,0,0,0.,24.0,0.,24.0,1.,24.0,0.,24.0
1979-07-30 19:25:45.320 ,1,1,0.,24.0,0.,24.0,0.,24.0,0.,24.0
1979-07-30 19:26:09.320 ,1,0,0.,24.0,0.,24.0,2.,24.0,0.,24.0
1979-07-30 19:26:33.320 ,2,1,0.,24.0,0.,24.0,1.,24.0,0.,24.0
1979-07-30 19:26:57.320 ,2,0,0.,24.0,0.,24.0,2.,24.0,0.,24.0
1979-07-30 19:27:21.320 ,3,1,0.,24.0,0.,24.0,1.,24.0,0.,24.0
1979-07-30 19:27:45.320 ,3,0,0.,24.0,0.,24.0,0.,24.0,0.,24.0
1979-07-30 19:28:09.320 ,4,1,0.,24.0,0.,24.0,1.,24.0,0.,24.0
1979-07-30 19:28:33.320 ,4,0,0.,24.0,0.,24.0,3.,24.0,0.,24.0
1979-07-30 19:28:57.320 ,5,1,0.,24.0,0.,24.0,2.,24.0,0.,24.0
1979-07-30 19:29:21.320 ,5,0,0.,24.0,0.,24.0,4.,24.0,0.,24.0
1979-07-30 19:29:45.320 ,6,1,0.,24.0,1.,24.0,0.,24.0,0.,24.0
1979-07-30 19:30:09.320 ,6,0,0.,24.0,1.,24.0,2.,24.0,0.,24.0
1979-07-30 19:30:33.310 ,7,0,1.,24.0,0.,24.0,4.,24.0,0.,24.0
1979-07-30 19:30:57.310 ,7,0,31.,24.0,0.,24.0,4.,24.0,0.,24.0
1979-07-30 19:31:21.310 ,5,1,20.,24.0,0.,24.0,4.,24.0,0.,24.0
1979-07-30 19:31:45.310 ,1,1,0.,24.0,0.,24.0,1.,24.0,0.,24.0
1979-07-30 19:32:09.310 ,2,1,0.,24.0,0.,24.0,3.,24.0,0.,24.0
1979-07-30 19:32:33.310 ,6,1,0.,24.0,0.,24.0,0.,24.0,0.,24.0
1979-07-30 19:32:57.310 ,5,1,12.,24.0,0.,24.0,1.,24.0,0.,24.0
1979-07-30 19:33:21.310 ,1,1,0.,24.0,0.,24.0,0.,24.0,0.,24.0
1979-07-30 19:33:45.310 ,2,1,0.,24.0,0.,24.0,1.,24.0,0.,24.0
1979-07-30 19:34:09.310 ,6,1,0.,24.0,0.,24.0,3.,24.0,0.,24.0
1979-07-30 19:34:33.310 ,5,1,11.,24.0,0.,24.0,0.,24.0,0.,24.0
1979-07-30 19:34:57.310 ,1,1,0.,24.0,0.,24.0,0.,24.0,0.,24.0
1979-07-30 19:35:21.310 ,2,1,0.,24.0,0.,24.0,2.,24.0,0.,24.0
1979-07-30 19:35:45.310 ,6,1,0.,24.0,0.,24.0,0.,24.0,0.,24.0
1979-07-30 19:36:09.310 ,5,1,16.,24.0,0.,24.0,2.,24.0,0.,24.0
1979-07-30 19:36:33.310 ,1,1,1.,24.0,0.,24.0,2.,24.0,0.,24.0
1979-07-30 19:36:57.310 ,2,1,0.,24.0,0.,24.0,2.,24.0,0.,24.0
1979-07-30 19:37:21.310 ,6,1,0.,24.0,0.,24.0,1.,24.0,0.,24.0
1979-07-30 19:37:45.310 ,5,1,20.,24.0,0.,24.0,3.,24.0,0.,24.0
1979-07-30 19:38:09.310 ,1,1,0.,24.0,0.,24.0,1.,24.0,0.,24.0
1979-07-30 19:38:33.310 ,2,1,0.,24.0,0.,24.0,2.,24.0,0.,24.0
1979-07-30 19:38:57.310 ,6,1,0.,24.0,0.,24.0,2.,24.0,0.,24.0
1979-07-30 19:39:21.310 ,5,1,12.,24.0,0.,24.0,5.,24.0,0.,24.0
1979-07-30 19:39:45.310 ,1,1,0.,24.0,0.,24.0,0.,24.0,0.,24.0
1979-07-30 19:40:09.310 ,2,1,0.,24.0,0.,24.0,3.,24.0,0.,24.0
1979-07-30 19:40:33.310 ,6,1,0.,24.0,0.,24.0,1.,24.0,0.,24.0
1979-07-30 19:40:57.310 ,5,1,7.,24.0,0.,24.0,2.,24.0,0.,24.0
1979-07-30 19:41:21.310 ,1,1,0.,24.0,0.,24.0,2.,24.0,0.,24.0
1979-07-30 19:41:45.310 ,0,0,0.,24.0,0.,24.0,2.,24.0,0.,24.0
1979-07-30 19:42:09.310 ,0,0,0.,24.0,0.,24.0,2.,24.0,0.,24.0
1979-07-30 19:42:33.310 ,5,1,15.,24.0,0.,24.0,1.,24.0,0.,24.0
1979-07-30 19:42:57.310 ,5,0,0.,24.0,0.,24.0,4.,24.0,0.,24.0
1979-07-30 19:43:21.310 ,4,1,0.,24.0,0.,24.0,1.,24.0,0.,24.0
1979-07-30 19:43:45.310 ,4,0,0.,24.0,0.,24.0,3.,24.0,0.,24.0
1979-07-30 19:44:09.310 ,3,1,0.,24.0,0.,24.0,3.,24.0,0.,24.0
1979-07-30 19:44:33.310 ,3,0,0.,24.0,0.,24.0,2.,24.0,0.,24.0
1979-07-30 19:44:57.310 ,2,1,0.,24.0,0.,24.0,2.,24.0,0.,24.0
1979-07-30 19:45:21.310 ,2,0,0.,24.0,0.,24.0,1.,24.0,0.,24.0
1979-07-30 19:45:45.310 ,1,1,0.,24.0,0.,24.0,1.,24.0,0.,24.0
1979-07-30 19:46:09.310 ,1,0,0.,24.0,0.,24.0,1.,24.0,0.,24.0
1979-07-30 19:46:33.310 ,0,1,0.,24.0,0.,24.0,3.,24.0,0.,24.0
1979-07-30 19:46:57.310 ,0,0,0.,24.0,0.,24.0,4.,24.0,0.,24.0
1979-07-30 19:47:21.310 ,0,1,0.,24.0,0.,24.0,4.,24.0,0.,24.0
1979-07-30 19:47:45.310 ,0,0,0.,24.0,0.,24.0,4.,24.0,0.,24.0
1979-07-30 19:48:09.310 ,1,1,0.,24.0,0.,24.0,1.,24.0,0.,24.0
1979-07-30 19:48:33.310 ,1,0,0.,24.0,0.,24.0,2.,24.0,0.,24.0
1979-07-30 19:48:57.310 ,2,1,0.,24.0,0.,24.0,1.,24.0,0.,24.0
1979-07-30 19:49:21.310 ,2,0,0.,24.0,0.,24.0,2.,24.0,0.,24.0
1979-07-30 19:49:45.310 ,3,1,0.,24.0,0.,24.0,4.,24.0,0.,24.0
1979-07-30 19:50:09.310 ,3,0,1.,24.0,0.,24.0,3.,24.0,0.,24.0
1979-07-30 19:50:33.310 ,4,1,0.,24.0,0.,24.0,1.,24.0,0.,24.0
1979-07-30 19:50:57.310 ,4,0,0.,24.0,0.,24.0,2.,24.0,0.,24.0
1979-07-30 19:51:21.310 ,5,1,0.,24.0,0.,24.0,1.,24.0,0.,24.0
1979-07-30 19:51:45.310 ,5,0,0.,24.0,0.,24.0,2.,24.0,0.,24.0
1979-07-30 19:52:09.310 ,6,1,0.,24.0,0.,24.0,2.,24.0,0.,24.0
1979-07-30 19:52:33.310 ,6,0,0.,24.0,0.,24.0,2.,24.0,0.,24.0
1979-07-30 19:52:57.310 ,7,1,7.,24.0,0.,24.0,2.,24.0,0.,24.0
1979-07-30 19:53:21.310 ,0,0,30.,24.0,0.,24.0,3.,24.0,0.,24.0
1979-07-30 19:54:01.510 ,0,0,,0,,0,,0,,0
1979-07-30 19:54:09.310 ,0,0,38.,24.0,0.,24.0,0.,24.0,0.,24.0
1979-07-30 19:54:33.310 ,6,1,25.,24.0,0.,24.0,2.,24.0,0.,24.0
1979-07-30 19:54:57.310 ,6,0,0.,24.0,0.,24.0,2.,24.0,0.,24.0
1979-07-30 19:55:21.310 ,5,1,0.,24.0,0.,24.0,1.,24.0,0.,24.0
1979-07-30 19:55:45.310 ,5,0,0.,24.0,0.,24.0,2.,24.0,0.,24.0
1979-07-30 19:56:09.310 ,4,1,0.,24.0,0.,24.0,1.,24.0,0.,24.0
1979-07-30 19:56:33.310 ,4,0,0.,24.0,0.,24.0,1.,24.0,0.,24.0
1979-07-30 19:56:57.310 ,3,1,0.,24.0,0.,24.0,1.,24.0,0.,24.0
1979-07-30 19:57:21.310 ,3,0,0.,24.0,1.,24.0,3.,24.0,0.,24.0
1979-07-30 19:57:45.310 ,2,1,0.,24.0,0.,24.0,4.,24.0,0.,24.0
1979-07-30 19:58:09.310 ,2,0,1.,24.0,0.,24.0,2.,24.0,0.,24.0
1979-07-30 19:58:33.310 ,1,1,0.,24.0,0.,24.0,5.,24.0,0.,24.0
1979-07-30 19:58:57.310 ,1,0,1.,24.0,0.,24.0,4.,24.0,0.,24.0
1979-07-30 19:59:21.310 ,0,1,0.,24.0,1.,24.0,4.,24.0,0.,24.0
1979-07-30 19:59:45.310 ,0,0,0.,24.0,0.,24.0,4.,24.0,0.,24.0
1979-07-30 20:00:09.310 ,0,1,0.,24.0,0.,24.0,6.,24.0,0.,24.0
1979-07-30 20:00:33.310 ,0,0,0.,24.0,0.,24.0,2.,24.0,0.,24.0
1979-07-30 20:00:57.310 ,1,1,1.,24.0,0.,24.0,5.,24.0,0.,24.0
1979-07-30 20:01:21.310 ,1,0,0.,24.0,1.,24.0,3.,24.0,0.,24.0
1979-07-30 20:01:45.310 ,2,1,0.,24.0,0.,24.0,1.,24.0,0.,24.0
1979-07-30 20:02:09.310 ,2,0,0.,24.0,0.,24.0,3.,24.0,0.,24.0
1979-07-30 20:02:33.310 ,3,1,0.,24.0,0.,24.0,2.,24.0,0.,24.0
1979-07-30 20:02:57.310 ,3,0,0.,24.0,0.,24.0,4.,24.0,0.,24.0
1979-07-30 20:03:21.310 ,4,1,0.,24.0,0.,24.0,2.,24.0,0.,24.0
1979-07-30 20:03:45.310 ,4,0,0.,24.0,0.,24.0,3.,24.0,0.,24.0
1979-07-30 20:04:09.310 ,5,1,0.,24.0,0.,24.0,2.,24.0,0.,24.0
1979-07-30 20:04:33.310 ,5,0,1.,24.0,0.,24.0,3.,24.0,0.,24.0
1979-07-30 20:04:57.310 ,6,1,0.,24.0,0.,24.0,6.,24.0,0.,24.0
1979-07-30 20:05:21.310 ,6,0,0.,24.0,1.,24.0,1.,24.0,0.,24.0
1979-07-30 20:05:45.310 ,7,1,12.,24.0,0.,24.0,4.,24.0,0.,24.0
1979-07-30 20:06:09.310 ,7,0,44.,24.0,0.,24.0,7.,24.0,0.,24.0
1979-07-30 20:06:33.310 ,7,1,31.,24.0,0.,24.0,5.,24.0,0.,24.0
1979-07-30 20:06:57.310 ,7,0,27.,24.0,0.,24.0,2.,24.0,0.,24.0
1979-07-30 20:07:21.310 ,6,1,28.,24.0,0.,24.0,0.,24.0,0.,24.0
1979-07-30 20:07:45.310 ,6,0,0.,24.0,0.,24.0,1.,24.0,0.,24.0
1979-07-30 20:08:09.310 ,5,1,0.,24.0,0.,24.0,2.,24.0,0.,24.0
1979-07-30 20:08:33.310 ,5,0,0.,24.0,0.,24.0,4.,24.0,0.,24.0
1979-07-30 20:08:57.310 ,4,1,0.,24.0,1.,24.0,5.,24.0,0.,24.0
1979-07-30 20:09:21.310 ,4,0,0.,24.0,0.,24.0,1.,24.0,0.,24.0
1979-07-30 20:09:45.310 ,3,1,0.,24.0,0.,24.0,4.,24.0,0.,24.0
1979-07-30 20:10:09.310 ,3,0,0.,24.0,0.,24.0,1.,24.0,0.,24.0
1979-07-30 20:10:33.310 ,2,1,0.,24.0,0.,24.0,3.,24.0,0.,24.0
1979-07-30 20:10:57.310 ,2,0,0.,24.0,0.,24.0,2.,24.0,0.,24.0
1979-07-30 20:11:21.310 ,1,1,0.,24.0,0.,24.0,1.,24.0,0.,24.0
1979-07-30 20:11:45.310 ,1,0,0.,24.0,0.,24.0,7.,24.0,0.,24.0
1979-07-30 20:12:09.310 ,0,1,0.,24.0,0.,24.0,0.,24.0,0.,24.0
1979-07-30 20:12:33.310 ,0,0,0.,24.0,0.,24.0,4.,24.0,0.,24.0
1979-07-30 20:12:57.310 ,0,1,0.,24.0,0.,24.0,2.,24.0,0.,24.0
1979-07-30 20:13:21.310 ,0,0,0.,24.0,0.,24.0,4.,24.0,0.,24.0
1979-07-30 20:13:45.310 ,1,1,0.,24.0,0.,24.0,7.,24.0,0.,24.0
1979-07-30 20:14:09.310 ,1,0,0.,24.0,0.,24.0,9.,24.0,0.,24.0
1979-07-30 20:14:33.310 ,2,1,0.,24.0,0.,24.0,4.,24.0,0.,24.0
1979-07-30 20:14:57.310 ,2,0,0.,24.0,0.,24.0,2.,24.0,0.,24.0
1979-07-30 20:15:21.310 ,3,1,0.,24.0,0.,24.0,1.,24.0,0.,24.0
1979-07-30 20:15:45.310 ,3,0,0.,24.0,0.,24.0,2.,24.0,0.,24.0
1979-07-30 20:16:09.310 ,4,1,0.,24.0,0.,24.0,3.,24.0,0.,24.0
1979-07-30 20:16:33.310 ,4,0,0.,24.0,0.,24.0,7.,24.0,0.,24.0
1979-07-30 20:16:57.310 ,5,1,0.,24.0,0.,24.0,3.,24.0,0.,24.0
1979-07-30 20:17:21.310 ,5,0,0.,24.0,0.,24.0,4.,24.0,0.,24.0
1979-07-30 20:17:45.310 ,6,1,0.,24.0,0.,24.0,5.,24.0,0.,24.0
1979-07-30 20:18:09.310 ,6,0,0.,24.0,0.,24.0,7.,24.0,0.,24.0
1979-07-30 20:18:33.310 ,7,0,7.,24.0,0.,24.0,8.,24.0,0.,24.0
1979-07-30 20:18:57.310 ,7,0,30.,24.0,0.,24.0,3.,24.0,0.,24.0
1979-07-30 20:19:21.310 ,5,1,17.,24.0,0.,24.0,7.,24.0,0.,24.0
1979-07-30 20:19:45.310 ,1,1,0.,24.0,0.,24.0,3.,24.0,0.,24.0
1979-07-30 20:20:09.310 ,2,1,0.,24.0,0.,24.0,6.,24.0,0.,24.0
1979-07-30 20:20:33.310 ,6,1,0.,24.0,0.,24.0,8.,24.0,0.,24.0
1979-07-30 20:20:57.310 ,5,1,10.,24.0,0.,24.0,3.,24.0,0.,24.0
1979-07-30 20:21:21.310 ,1,1,1.,24.0,0.,24.0,5.,24.0,0.,24.0
1979-07-30 20:21:45.310 ,2,1,0.,24.0,0.,24.0,9.,24.0,0.,24.0
1979-07-30 20:22:09.310 ,6,1,0.,24.0,0.,24.0,10.,24.0,0.,24.0
1979-07-30 20:22:33.310 ,5,1,20.,24.0,0.,24.0,8.,24.0,0.,24.0
1979-07-30 20:22:57.310 ,1,1,0.,24.0,0.,24.0,3.,24.0,0.,24.0
1979-07-30 20:23:21.310 ,2,1,0.,24.0,0.,24.0,10.,24.0,0.,24.0
1979-07-30 20:23:45.310 ,6,1,0.,24.0,0.,24.0,6.,24.0,0.,24.0
1979-07-30 20:24:09.310 ,5,1,10.,24.0,0.,24.0,4.,24.0,0.,24.0
1979-07-30 20:24:33.310 ,1,1,0.,24.0,0.,24.0,12.,24.0,0.,24.0
1979-07-30 20:24:57.310 ,2,1,0.,24.0,0.,24.0,2.,24.0,0.,24.0
1979-07-30 20:25:21.310 ,6,1,0.,24.0,0.,24.0,7.,24.0,0.,24.0
1979-07-30 20:25:45.310 ,5,1,18.,24.0,0.,24.0,4.,24.0,0.,24.0
1979-07-30 20:26:09.310 ,1,1,1.,24.0,0.,24.0,9.,24.0,0.,24.0
1979-07-30 20:26:33.310 ,2,1,0.,24.0,0.,24.0,5.,24.0,0.,24.0
1979-07-30 20:26:57.310 ,6,1,0.,24.0,0.,24.0,6.,24.0,0.,24.0
1979-07-30 20:27:21.310 ,5,1,19.,24.0,0.,24.0,6.,24.0,0.,24.0
1979-07-30 20:27:45.310 ,1,1,0.,24.0,0.,24.0,2.,24.0,0.,24.0
1979-07-30 20:28:09.310 ,2,1,0.,24.0,0.,24.0,9.,24.0,0.,24.0
1979-07-30 20:28:33.310 ,6,1,1.,24.0,0.,24.0,4.,24.0,0.,24.0
1979-07-30 20:28:57.310 ,5,1,13.,24.0,0.,24.0,9.,24.0,0.,24.0
1979-07-30 20:29:21.310 ,1,1,0.,24.0,0.,24.0,5.,24.0,0.,24.0
1979-07-30 20:29:45.310 ,0,0,0.,24.0,0.,24.0,3.,24.0,0.,24.0
1979-07-30 20:30:09.310 ,0,0,0.,24.0,0.,24.0,3.,24.0,0.,24.0
1979-07-30 20:30:33.310 ,5,1,16.,24.0,0.,24.0,9.,24.0,0.,24.0
1979-07-30 20:30:57.310 ,5,0,1.,24.0,0.,24.0,7.,24.0,0.,24.0
1979-07-30 20:31:21.310 ,4,1,0.,24.0,0.,24.0,4.,24.0,0.,24.0
1979-07-30 20:31:45.310 ,4,0,0.,24.0,0.,24.0,7.,24.0,0.,24.0
1979-07-30 20:32:09.310 ,3,1,0.,24.0,0.,24.0,5.,24.0,0.,24.0
1979-07-30 20:32:33.310 ,3,0,0.,24.0,0.,24.0,7.,24.0,0.,24.0
1979-07-30 20:32:57.310 ,2,1,0.,24.0,0.,24.0,7.,24.0,0.,24.0
1979-07-30 20:33:21.310 ,2,0,0.,24.0,0.,24.0,4.,24.0,0.,24.0
1979-07-30 20:33:45.310 ,1,1,0.,24.0,0.,24.0,8.,24.0,0.,24.0
1979-07-30 20:34:09.310 ,1,0,0.,24.0,0.,24.0,7.,24.0,0.,24.0
1979-07-30 20:34:33.310 ,0,1,0.,24.0,0.,24.0,13.,24.0,0.,24.0